Flag for Germany Weather past 2 weeks in Bretten, Baden-Württemberg, Germany

Now
41 °F

Passing clouds.


Feels Like: 35 °F
Forecast: 35 / 47 °F
Wind: 10 mph from West

Location: Baden Wurttemberg - Neuostheim

Current Time: Mar 2, 2015 at 8:35:46 PM

Latest Report: Mar 2, 2015 at 7:50 PM


Visibility: N/A

Pressure: 29.95 "Hg

Humidity: 76%

Dew point: 34 °F

Location of BrettenLocation

Historic Weather in Bretten — Graph

°F

Bretten temperature yesterday

Maximum temperature yesterday: 50 °F (at 2:50 PM)
Minimum temperature yesterday: 37 °F (at 7:20 AM)
Average temperature yesterday: 46 °F

Past Weeks' High & Low Weather Summary

 TemperatureHumidityPressure
High55 °F (Feb 20, 3:20 PM)100% (Feb 22, 7:50 AM)30.74 "Hg (Feb 22, 7:50 AM)
Low30 °F (Feb 15, 7:20 PM)35% (Mar 2, 3:20 PM)29.47 "Hg (Feb 23, 2:20 PM)
Average41 °F75%30.03 "Hg
* Reported Feb 15 7:20 PM — Mar 2 7:20 PM, Bretten, Weather by CustomWeather, © 2015

Note: Actual official high and low records may vary slightly from our data, if they occured in-between our weather recording intervals... More about our weather records

Advertising

Bretten weather history for previous 24 hours

 ConditionsComfort  
Time TempWeatherWind HumidityBarometerVisibility
7:20 PM
Mon, Mar 2
41 °FPassing clouds.9 mph76%29.92 "HgN/A
6:50 PM43 °FPassing clouds.8 mph76%29.89 "HgN/A
6:20 PM41 °FPassing clouds.7 mph87%29.89 "HgN/A
5:20 PM39 °FScattered showers. Broken clouds.22 mph100%29.86 "HgN/A
4:50 PM48 °FBroken clouds.12 mph54%29.83 "HgN/A
4:20 PM50 °FPassing clouds.16 mph47%29.80 "HgN/A
3:50 PM52 °FPassing clouds.14 mph38%29.80 "HgN/A
3:20 PM50 °FSunny.16 mph35%29.80 "Hg10 mi
2:50 PM50 °FPassing clouds.12 mph40%29.77 "HgN/A
2:20 PM50 °FPassing clouds.12 mph40%29.77 "HgN/A
1:50 PM48 °FScattered clouds.12 mph46%29.77 "HgN/A
1:20 PM50 °FScattered clouds.14 mph47%29.77 "HgN/A
12:50 PM48 °FScattered clouds.13 mph54%29.77 "HgN/A
12:20 PM48 °FPassing clouds.10 mph54%29.77 "HgN/A
11:50 AM46 °FScattered clouds.10 mph62%29.77 "HgN/A
11:20 AM46 °FPartly sunny.14 mph62%29.77 "HgN/A
10:50 AM48 °FPartly sunny.10 mph62%29.77 "HgN/A
10:20 AM46 °FScattered clouds.15 mph62%29.74 "HgN/A
9:50 AM45 °FScattered showers. Broken clouds.14 mph66%29.74 "HgN/A
9:20 AM45 °FScattered showers. Partly sunny.13 mph71%29.74 "HgN/A
8:50 AM46 °FPartly sunny.8 mph71%29.71 "HgN/A
8:20 AM46 °FSprinkles. Partly sunny.13 mph66%29.68 "HgN/A
7:50 AM46 °FBroken clouds.5 mph76%29.65 "HgN/A
7:20 AM46 °FMore clouds than sun.7 mph82%29.65 "HgN/A
6:50 AM46 °FPassing clouds.6 mph82%29.65 "HgN/A
6:20 AM46 °FPassing clouds.6 mph82%29.62 "HgN/A
5:50 AM48 °FMostly cloudy.9 mph71%29.65 "HgN/A
Weather by CustomWeather, © 2015

See weather overviewHow to use our weather pages